Find Starlink 11349

NORAD ID: 61544 Int'l Des: 2024-184 Owner: SPXS Country: US Constellation: starlink operational
別名: STARLINK-11349 [DTC] celestrak
LEOCIRCULAR

現在のビュー

3D地球を読み込み中...

About Starlink 11349

Starlink 11349 (NORAD 61544) is a starlink constellation satellite (v2 mini d2c) launched Oct 15, 2024 by SPXS of US. It operates in LEO, CIRCULAR orbit with a mass of 960.00 kg.

次回通過

Passes for default location (London). Set your location on the main map for personalized predictions.

高度履歴

Loading altitude history...

軌道要素

1 61544U 24184N 26248.54450207 -.00001429 00000-0 -69405-5 0 9995
2 61544 53.1594 69.7836 0000807 75.2879 284.8228 15.69708714108664
Epoch: Sep 5, 2026 • Age: 5 hours

現在のステータス

高度 362.3 km
遠地点 / 近地点 N/A
速度 7.70 km/s
衛星直下点 36.56°N, 42.86°W
打ち上げ日 Oct 15, 2024
運用期間 1.8 years
タイプ internet

技術仕様

分類 Payload
質量 960.00 kg
乾燥質量 910.00 kg
総質量 960.00 kg
長さ 0.30 m
直径 4.10 m
スパン 29.00 m
形状 Box + pan
製造者 SPXS
バスタイプ Starlink V2MD
フェーズステータス In Orbit
所有者/国 SPXS/US

Most Searched